HP3ICC-17 Weather Reports


Display with metric or nautical units.
time (UTC)temp
F
wind
direction
speed
MPH
gust
MPH
rain 1hr
in
rain 24hr
in
rain mn
in
humidity
%
barometer
mb
20260507112505 71 234 1.0 1.0 0.00 0.00 0.00 84 1011.0
20260507112405 71 234 1.0 1.0 0.00 0.00 0.00 84 1011.0
20260507110504 72 234 1.0 1.0 0.00 0.00 0.00 84 1011.0
20260507110404 72 234 1.0 1.0 0.00 0.00 0.00 84 1011.0
20260507104504 73 234 1.0 1.0 0.00 0.00 0.00 84 1011.0
20260507104403 73 234 1.0 1.0 0.00 0.00 0.00 84 1011.0
20260507102503 74 234 2.0 2.0 0.00 0.00 0.00 84 1011.0
20260507102403 74 234 2.0 2.0 0.00 0.00 0.00 84 1011.0
20260507100503 71 238 1.0 1.0 0.00 0.00 0.00 84 1011.0
20260507100402 71 238 1.0 1.0 0.00 0.00 0.00 84 1011.0
20260507094502 72 238 1.0 1.0 0.00 0.00 0.00 84 1011.0
20260507094402 72 238 1.0 1.0 0.00 0.00 0.00 84 1011.0
20260507092502 73 238 1.0 1.0 0.00 0.00 0.00 84 1011.0
20260507092401 73 238 1.0 1.0 0.00 0.00 0.00 84 1011.0
20260507090501 74 238 2.0 2.0 0.00 0.00 0.00 84 1011.0
20260507090400 74 238 2.0 2.0 0.00 0.00 0.00 84 1011.0
20260507084500 71 249 1.0 1.0 0.00 0.00 0.00 83 1011.0
20260507084400 71 249 1.0 1.0 0.00 0.00 0.00 83 1011.0
20260507082500 72 249 1.0 1.0 0.00 0.00 0.00 83 1011.0
20260507082400 72 249 1.0 1.0 0.00 0.00 0.00 83 1011.0
20260507080459 73 249 1.0 1.0 0.00 0.00 0.00 83 1011.0
20260507080359 73 249 1.0 1.0 0.00 0.00 0.00 83 1011.0
20260507074459 74 249 1.0 1.0 0.00 0.00 0.00 83 1011.0
20260507074358 74 249 1.0 1.0 0.00 0.00 0.00 83 1011.0
20260507072458 75 249 1.0 1.0 0.00 0.00 0.00 83 1011.0
20260507072358 75 249 1.0 1.0 0.00 0.00 0.00 83 1011.0
20260507070458 76 249 1.0 1.0 0.00 0.00 0.00 83 1011.0
20260507070358 76 249 1.0 1.0 0.00 0.00 0.00 83 1011.0
20260507064458 77 249 1.0 1.0 0.00 0.00 0.00 83 1011.0
20260507064357 77 249 1.0 1.0 0.00 0.00 0.00 83 1011.0
20260507062457 78 249 1.0 1.0 0.00 0.00 0.00 83 1012.0
20260507062357 78 249 1.0 1.0 0.00 0.00 0.00 83 1012.0
20260507060456 79 249 2.0 2.0 0.00 0.00 0.00 83 1012.0
20260507060356 79 249 2.0 2.0 0.00 0.00 0.00 83 1012.0
20260507054456 72 239 3.0 3.0 0.00 0.00 0.00 82 1012.0
20260507054355 72 239 3.0 3.0 0.00 0.00 0.00 82 1012.0
20260507052455 73 239 3.0 3.0 0.00 0.00 0.00 82 1013.0
20260507052355 73 239 3.0 3.0 0.00 0.00 0.00 82 1013.0
20260507050455 74 239 3.0 3.0 0.00 0.00 0.00 82 1013.0
20260507050355 74 239 3.0 3.0 0.00 0.00 0.00 82 1013.0
20260507044454 75 239 3.0 3.0 0.00 0.00 0.00 82 1013.0
20260507044354 75 239 3.0 3.0 0.00 0.00 0.00 82 1013.0
20260507042453 76 239 3.0 3.0 0.00 0.00 0.00 82 1013.0
20260507042353 76 239 3.0 3.0 0.00 0.00 0.00 82 1013.0
20260507040453 77 239 3.0 3.0 0.00 0.00 0.00 82 1013.0
20260507040352 77 239 3.0 3.0 0.00 0.00 0.00 82 1013.0
20260507034452 78 239 3.0 3.0 0.00 0.00 0.00 82 1013.0
20260507034352 78 239 3.0 3.0 0.00 0.00 0.00 82 1013.0
20260507032451 79 239 3.0 3.0 0.00 0.00 0.00 82 1013.0
20260507032351 79 239 3.0 3.0 0.00 0.00 0.00 82 1013.0
20260507030451 80 239 3.0 3.0 0.00 0.00 0.00 82 1013.0
20260507030351 80 239 3.0 3.0 0.00 0.00 0.00 82 1013.0
20260507024450 73 228 1.0 1.0 0.00 0.00 0.00 81 1013.0
20260507024350 73 228 1.0 1.0 0.00 0.00 0.00 81 1013.0
20260507022450 74 228 1.0 1.0 0.00 0.00 0.00 81 1012.0
20260507022350 74 228 1.0 1.0 0.00 0.00 0.00 81 1012.0
20260507020449 75 228 1.0 1.0 0.00 0.00 0.00 81 1012.0
20260507020349 75 228 1.0 1.0 0.00 0.00 0.00 81 1012.0
20260507014449 76 228 1.0 1.0 0.00 0.00 0.00 81 1012.0
20260507014349 76 228 1.0 1.0 0.00 0.00 0.00 81 1012.0
20260507012448 77 228 2.0 1.0 0.00 0.00 0.00 81 1011.0
20260507012348 77 228 2.0 1.0 0.00 0.00 0.00 81 1011.0
20260507010448 73 228 1.0 1.0 0.00 0.00 0.00 81 1011.0
20260507010348 73 228 1.0 1.0 0.00 0.00 0.00 81 1011.0
20260507004448 74 228 2.0 1.0 0.00 0.00 0.00 81 1011.0
20260507004347 74 228 2.0 1.0 0.00 0.00 0.00 81 1011.0
20260507002447 75 357 0.0 1.0 0.00 0.00 0.00 81 1011.0
20260507002347 75 357 0.0 1.0 0.00 0.00 0.00 81 1011.0
20260507000449 76 357 0.0 1.0 0.00 0.00 0.00 81 1011.0
20260507000347 76 357 0.0 1.0 0.00 0.00 0.00 81 1011.0
20260506234446 77 357 0.0 1.0 0.00 0.00 0.00 81 1011.0
20260506234346 77 357 0.0 1.0 0.00 0.00 0.00 81 1011.0
20260506232446 76 14 1.0 1.0 0.00 0.00 0.00 78 1010.0
20260506232346 76 14 1.0 1.0 0.00 0.00 0.00 78 1010.0
20260506230445 77 14 1.0 1.0 0.00 0.00 0.00 78 1010.0
20260506230345 77 14 1.0 1.0 0.00 0.00 0.00 78 1010.0
20260506224445 78 14 2.0 2.0 0.00 0.00 0.00 78 1010.0
20260506224345 78 14 2.0 2.0 0.00 0.00 0.00 78 1010.0
20260506222444 78 16 4.0 5.0 0.00 0.00 0.00 76 1010.0
20260506222344 78 16 4.0 5.0 0.00 0.00 0.00 76 1010.0
20260506220444 79 16 4.0 5.0 0.00 0.00 0.00 76 1010.0
20260506220344 79 16 4.0 5.0 0.00 0.00 0.00 76 1010.0
20260506214443 80 16 4.0 5.0 0.00 0.00 0.00 76 1010.0
20260506214343 80 16 4.0 5.0 0.00 0.00 0.00 76 1010.0
20260506212443 78 13 5.0 5.0 0.00 0.00 0.00 78 1010.0
20260506212343 78 13 5.0 5.0 0.00 0.00 0.00 78 1010.0
20260506210442 79 13 5.0 5.0 0.00 0.00 0.00 78 1010.0
20260506210342 79 13 5.0 5.0 0.00 0.00 0.00 78 1010.0
20260506204442 80 13 5.0 5.0 0.00 0.00 0.00 78 1010.0
20260506204342 80 13 5.0 5.0 0.00 0.00 0.00 78 1010.0
20260506202441 81 13 5.0 5.0 0.00 0.00 0.00 78 1010.0
20260506202341 81 13 5.0 5.0 0.00 0.00 0.00 78 1010.0
20260506200441 82 13 5.0 5.0 0.00 0.00 0.00 78 1010.0
20260506200341 82 13 5.0 5.0 0.00 0.00 0.00 78 1010.0
20260506194441 83 13 5.0 5.0 0.00 0.00 0.00 78 1010.0
20260506194341 83 13 5.0 5.0 0.00 0.00 0.00 78 1010.0
20260506192440 84 13 6.0 6.0 0.00 0.00 0.00 78 1011.0
20260506192340 84 13 6.0 6.0 0.00 0.00 0.00 78 1011.0
20260506190440 79 21 7.0 5.0 0.00 0.00 0.00 79 1011.0
20260506190339 79 21 7.0 5.0 0.00 0.00 0.00 79 1011.0
20260506184439 80 21 7.0 5.0 0.00 0.00 0.00 79 1011.0
20260506184339 80 21 7.0 5.0 0.00 0.00 0.00 79 1011.0
20260506182438 81 21 7.0 5.0 0.00 0.00 0.00 79 1012.0
20260506182338 81 21 7.0 5.0 0.00 0.00 0.00 79 1012.0
20260506180438 82 21 7.0 5.0 0.00 0.00 0.00 79 1012.0
20260506180338 82 21 7.0 5.0 0.00 0.00 0.00 79 1012.0
20260506174438 83 21 7.0 5.0 0.00 0.00 0.00 79 1012.0
20260506174337 83 21 7.0 5.0 0.00 0.00 0.00 79 1012.0
20260506172437 84 21 7.0 6.0 0.00 0.00 0.00 79 1012.0
20260506172337 84 21 7.0 6.0 0.00 0.00 0.00 79 1012.0
20260506170437 80 13 5.0 4.0 0.00 0.00 0.00 80 1012.0
20260506170336 80 13 5.0 4.0 0.00 0.00 0.00 80 1012.0
20260506164436 81 13 5.0 4.0 0.00 0.00 0.00 80 1012.0
20260506164336 81 13 5.0 4.0 0.00 0.00 0.00 80 1012.0
20260506162436 82 13 5.0 4.0 0.00 0.00 0.00 80 1013.0
20260506162335 82 13 5.0 4.0 0.00 0.00 0.00 80 1013.0
20260506160435 83 13 5.0 4.0 0.00 0.00 0.00 80 1013.0
20260506160335 83 13 5.0 4.0 0.00 0.00 0.00 80 1013.0
20260506154435 80 2 3.0 3.0 0.00 0.00 0.00 82 1013.0
20260506154334 80 2 3.0 3.0 0.00 0.00 0.00 82 1013.0
20260506152434 81 2 3.0 3.0 0.00 0.00 0.00 82 1013.0
20260506152334 81 2 3.0 3.0 0.00 0.00 0.00 82 1013.0
20260506150434 82 2 3.0 3.0 0.00 0.00 0.00 82 1013.0
20260506150333 82 2 3.0 3.0 0.00 0.00 0.00 82 1013.0
20260506144433 79 325 1.0 1.0 0.00 0.00 0.00 84 1013.0
20260506142433 80 325 1.0 1.0 0.00 0.00 0.00 84 1013.0
20260506142332 80 325 1.0 1.0 0.00 0.00 0.00 84 1013.0
20260506140432 81 325 1.0 2.0 0.00 0.00 0.00 84 1013.0
20260506140332 81 325 1.0 2.0 0.00 0.00 0.00 84 1013.0
20260506134432 76 247 1.0 1.0 0.00 0.00 0.00 85 1013.0
20260506134331 76 247 1.0 1.0 0.00 0.00 0.00 85 1013.0
20260506132431 77 247 1.0 2.0 0.00 0.00 0.00 85 1012.0
20260506132331 77 247 1.0 2.0 0.00 0.00 0.00 85 1012.0
20260506130431 75 247 1.0 1.0 0.00 0.00 0.00 85 1012.0
20260506130331 75 247 1.0 1.0 0.00 0.00 0.00 85 1012.0
20260506124430 76 247 1.0 2.0 0.00 0.00 0.00 85 1012.0
20260506124330 76 247 1.0 2.0 0.00 0.00 0.00 85 1012.0
20260506122430 72 253 1.0 3.0 0.00 0.00 0.00 89 1012.0
20260506122330 72 253 1.0 3.0 0.00 0.00 0.00 89 1012.0
20260506120429 73 253 1.0 3.0 0.00 0.00 0.00 89 1012.0
20260506120329 73 253 1.0 3.0 0.00 0.00 0.00 89 1012.0
20260506114429 74 253 1.0 3.0 0.00 0.00 0.00 89 1012.0
20260506114329 74 253 1.0 3.0 0.00 0.00 0.00 89 1012.0